Weather History for KMYL - March, 2015

Change the Weather History Date:

Wednesday, March 11, 2015

  Actual Average Record
Temperature  
Mean Temperature 40 °F 28 °F  
Max Temperature 48 °F 39 °F 60 °F (1992)
Min Temperature 32 °F 17 °F -16 °F (1951)
Degree Days  
Heating Degree Days 25 37  
Month to date heating degree days 343 424  
Since 1 July heating degree days 5714 7099  
Cooling Degree Days 0 0  
Month to date cooling degree days 0 0  
Year to date cooling degree days 0 0  
Moisture  
Dew Point 32 °F    
Average Humidity 73    
Maximum Humidity 100    
Minimum Humidity 45    
Precipitation  
Precipitation 0.04 in 0.06 in 0.58 in (1990)
Month to date precipitation 0.05 0.60  
Year to date precipitation 4.24 4.07  
Sea Level Pressure  
Sea Level Pressure 30.07 in    
Wind  
Wind Speed 3 mph (North)    
Max Wind Speed 13 mph    
Max Gust Speed 17 mph    
Visibility 9 miles    
Events Rain    
T = Trace of Precipitation, MM = Missing Value Source: NWS Daily Summary

Daily Weather History Graph

Daily Weather History Graph

Search for Another Location

Airport or City:

Trip Planner

Search our weather history database for the weather conditions in past years. The results will help you decide how hot, cold, wet, or windy it might be!

Date:

Astronomy

Mar. 11, 2015 Rise Set
Actual Time 8:04 AM MDT 7:45 PM MDT
Civil Twilight 7:35 AM MDT 8:14 PM MDT
Nautical Twilight 7:01 AM MDT 8:48 PM MDT
Astronomical Twilight 6:27 AM MDT 9:22 PM MDT
Moon 12:50 AM MDT (3/11) 11:03 AM MDT (3/11)
Length of Visible Light 12h 38m
Length of Day
11h 40m
Waning Gibbous, 70% of the Moon is Illuminated
Mar 11
Waning Gibbous
Mar 13
Last Quarter
Mar 20
New
Mar 27
First Quarter
Apr 4
Full

Hourly Weather History & Observations

Time (MDT) Temp. Windchill Dew Point Humidity Pressure Visibility Wind Dir Wind Speed Gust Speed Precip Events Conditions
12:51 AM 36.0 °F - 25.0 °F 64% 30.01 in 10.0 mi Calm Calm - N/A   Clear
1:51 AM 34.0 °F - 25.0 °F 70% 29.98 in 10.0 mi Calm Calm - N/A   Clear
2:51 AM 34.0 °F 31.0 °F 25.0 °F 70% 29.96 in 10.0 mi NW 3.5 mph - N/A   Clear
3:51 AM 34.0 °F - 25.0 °F 70% 29.96 in 10.0 mi Calm Calm - N/A   Clear
4:51 AM 35.1 °F - 26.1 °F 70% 29.94 in 10.0 mi Calm Calm - N/A   Clear
5:51 AM 33.1 °F - 26.1 °F 75% 29.95 in 10.0 mi Calm Calm - N/A   Clear
6:51 AM 34.0 °F - 26.1 °F 73% 29.96 in 10.0 mi Calm Calm - N/A   Clear
7:51 AM 34.0 °F 31.0 °F 26.1 °F 73% 30.01 in 10.0 mi Variable 3.5 mph - N/A   Mostly Cloudy
8:51 AM 36.0 °F 33.3 °F 26.1 °F 67% 30.03 in 10.0 mi Variable 3.5 mph - N/A   Overcast
9:51 AM 39.0 °F 35.7 °F 27.0 °F 62% 30.05 in 10.0 mi NNE 4.6 mph - N/A   Overcast
10:51 AM 45.0 °F - 28.9 °F 53% 30.06 in 10.0 mi Calm Calm - N/A   Overcast
11:51 AM 46.9 °F - 26.1 °F 44% 30.07 in 10.0 mi SW 4.6 mph - N/A   Overcast
12:51 PM 46.9 °F - 30.0 °F 52% 30.08 in 10.0 mi NNW 5.8 mph - N/A   Overcast
1:51 PM 41.0 °F 35.8 °F 36.0 °F 82% 30.12 in 8.0 mi ENE 8.1 mph - 0.01 in Rain Light Rain
2:05 PM 41.0 °F 35.8 °F 37.0 °F 86% 30.09 in 10.0 mi NE 8.1 mph - 0.01 in Rain Light Rain
2:18 PM 41.0 °F 36.4 °F 37.4 °F 87% 30.08 in 9.0 mi NE 6.9 mph - N/A Rain Light Rain
2:45 PM 41.0 °F 37.1 °F 37.0 °F 86% 30.08 in 10.0 mi NNE 5.8 mph - 0.01 in Rain Light Rain
2:51 PM 41.0 °F 37.1 °F 37.0 °F 86% 30.12 in 10.0 mi NNE 5.8 mph - 0.02 in Rain Light Rain
3:21 PM 41.0 °F 37.1 °F 37.0 °F 86% 30.06 in 10.0 mi NE 5.8 mph - 0.00 in Rain Light Rain
3:51 PM 39.9 °F 35.8 °F 37.0 °F 89% 30.10 in 10.0 mi North 5.8 mph - 0.00 in Rain Light Rain
4:02 PM 39.9 °F 36.7 °F 37.0 °F 89% 30.06 in 9.0 mi North 4.6 mph - 0.00 in Rain Light Rain
4:51 PM 39.9 °F 35.1 °F 37.9 °F 93% 30.09 in 10.0 mi NNW 6.9 mph - 0.01 in   Overcast
5:29 PM 39.9 °F 37.8 °F 37.9 °F 93% 30.07 in 10.0 mi NNE 3.5 mph - N/A   Overcast
5:51 PM 39.9 °F 37.8 °F 37.9 °F 93% 30.11 in 8.0 mi NNW 3.5 mph - N/A   Overcast
6:51 PM 39.9 °F - 37.9 °F 93% 30.12 in 9.0 mi Calm Calm - 0.00 in   Overcast
7:51 PM 41.0 °F 36.4 °F 36.0 °F 82% 30.14 in 10.0 mi SE 6.9 mph - N/A   Overcast
8:51 PM 39.0 °F 36.8 °F 37.0 °F 93% 30.16 in 10.0 mi NW 3.5 mph - N/A   Overcast
9:51 PM 37.9 °F - 36.0 °F 93% 30.17 in 7.0 mi Calm Calm - N/A   Overcast
10:51 PM 37.9 °F 35.5 °F 37.0 °F 97% 30.17 in 6.0 mi NW 3.5 mph - N/A   Overcast
11:51 PM 37.9 °F - 36.0 °F 93% 30.18 in 6.0 mi Calm Calm - N/A   Overcast